TOURFACTS.DK  
Stats and Facts from Tour de France.

Tour de France 2018 starts in 200 days
  Riders   Stages   Teams   Summits   Yearly  


 
Search by year

 2017 - St. 21:  14824 starters.
  5132 different riders.
  635 teams.
  2232 stages.
  454 restdays.
  439589.60 km.
  5653 abandonnees.


Top 3
Christopher Froome86:20:55
Rigoberto Uran86:21:49
Romain Bardet86:23:15
Warren Barguil169 pt.
Primoz Roglic80 pt.
Thomas De Gendt64 pt.
Michael Matthews359 pt.
André Greipel234 pt.
Edvald Boasson Hagen220 pt.
Simon Yates86:27:09
Louis Meintjes86:29:15
Emanuel Buchmann86:54:16
Facts from Tour de France 2009
  |   Stages.  |   Stage winners.  |   Days in yellow  |   Average speed.  |   Route.  |   Teams.  |   All riders.  |   Rookies.  |   Withdrawls.  |  

  |   GC.  |   Polka  |   Green  |   White  |   Summits. (In tour)  |   Summits. (Points)  |   Miscellaneous.  |  

Stage 19 on 24 - 07 - 2009
         Owning:    Alberto Contador    
Pick a stage:  1 2 3 4 5 6 7 8 9 10 11 12 13 14 15 16 17 18 19 20 21
  Bourgoin-JallieuAubenas | Dist: 178.00 km.
Cat: 4Côte de CulinFRAThierry Hupond
3 points
 
Cat: 4Côte de ChambaranFRAGeoffroy Lequatre
3 points
 
Cat: 2Col de l'EscrinetITAAlessandro Ballan
20 points
 

Average speed for all riders in stage:  44,872 km./hr.
    Place:Name:Team:Time:Km/h:
IOMMark CavendishUSATeam Columbia-HTC03:50:35  +  00:00:00=46,317 
NORThor HushovdCHECervelo Test Team03:50:35  +  00:00:00=46,317 
GERGerald CiolekDEUTeam Milram03:50:35  +  00:00:00=46,317 
4 BELGreg Van AvermaetBELSilence-Lotto03:50:35  +  00:00:00=46,317 
5 ESPOscar FreireNLDRabobank03:50:35  +  00:00:00=46,317 
6 FRAJérôme PineauBELQuick Step03:50:35  +  00:00:00=46,317 
7 JPNFumiyuki BeppuNLDSkil-Shimano03:50:35  +  00:00:00=46,317 
8 FRANicolas RocheFRAAg2r La Mondiale03:50:35  +  00:00:00=46,317 
9 FRAChristophe Le MevelFRAFrancaise Des Jeux03:50:35  +  00:00:00=46,317 
10 NEDMartijn MaaskantUSAGarmin-Slipstream03:50:35  +  00:00:00=46,317 
11 FRAGeoffroy LequatreFRAAgritubel03:50:35  +  00:00:00=46,317 
12 USALance ArmstrongKAZAstana Pro Team03:50:35  +  00:00:00=46,317 
13 RUSSerguei IvanovRUSTeam Katusha03:50:39  +  00:00:04=46,304 
14 BELBradley WigginsUSAGarmin-Slipstream03:50:39  +  00:00:04=46,304 
15 LUXAndy SchleckDNKTeam Saxo Bank03:50:39  +  00:00:04=46,304 
16 ESPMikel AstarlozaESPEuskaltel - Euskadi03:50:39  +  00:00:04=46,304 
17 GERTony MartinUSATeam Columbia-HTC03:50:39  +  00:00:04=46,304 
18 RUSVladimir KarpetsRUSTeam Katusha03:50:39  +  00:00:04=46,304 
19 ITARinaldo NocentiniFRAAg2r La Mondiale03:50:39  +  00:00:04=46,304 
20 GERAndréas KlödenKAZAstana Pro Team03:50:39  +  00:00:04=46,304 
21 BELJurgen Van Den BroeckBELSilence-Lotto03:50:39  +  00:00:04=46,304 
22 RUSAlexandre BotcharovRUSTeam Katusha03:50:39  +  00:00:04=46,304 
23 GERSebastian LangBELSilence-Lotto03:50:39  +  00:00:04=46,304 
24 ESPAlberto ContadorKAZAstana Pro Team03:50:39  +  00:00:04=46,304 
25 FRAStéphane GoubertFRAAg2r La Mondiale03:50:39  +  00:00:04=46,304 
26 ITAVincenzo NibaliITALiquigas03:50:39  +  00:00:04=46,304 
27 LUXFränk SchleckDNKTeam Saxo Bank03:50:39  +  00:00:04=46,304 
28 FRASandy CasarFRAFrancaise Des Jeux03:50:39  +  00:00:04=46,304 
29 SWEGustav LarssonDNKTeam Saxo Bank03:50:39  +  00:00:04=46,304 
30 CZERoman KreuzigerITALiquigas03:50:39  +  00:00:04=46,304 
31 FRAChristophe MoreauFRAAgritubel03:50:39  +  00:00:04=46,304 
32 ESPGorka VerdugoESPEuskaltel - Euskadi03:50:39  +  00:00:04=46,304 
33 SVKPeter VelitsDEUTeam Milram03:50:39  +  00:00:04=46,304 
34 GERChristian KneesDEUTeam Milram03:50:39  +  00:00:04=46,304 
35 USAChristian VandeveldeUSAGarmin-Slipstream03:50:39  +  00:00:04=46,304 
36 ESPEgoi MartínezESPEuskaltel - Euskadi03:50:39  +  00:00:04=46,304 
37 ESPLuis León SánchezESPCaisse d´Epargne03:50:39  +  00:00:04=46,304 
38 COLRigoberto UranESPCaisse d´Epargne03:50:39  +  00:00:04=46,304 
39 AUSMatthew LloydBELSilence-Lotto03:50:39  +  00:00:04=46,304 
40 BELFrederik WillemsITALiquigas03:50:47  +  00:00:12=46,277 
41 GERLinus GerdemannDEUTeam Milram03:50:47  +  00:00:12=46,277 
42 USAGeorge HincapieUSATeam Columbia-HTC03:50:47  +  00:00:12=46,277 
43 BELMaxime MonfortUSATeam Columbia-HTC03:51:07  +  00:00:32=46,210 
44 FRALaurent LefèvreFRABbox Bouygues Telecom03:51:20  +  00:00:45=46,167 
45 ITAAlessandro BallanITALampre-N.G.C03:51:45  +  00:01:10=46,084 
46 FRASébastien MinardFRACofidis Le Credit En Ligne03:51:50  +  00:01:15=46,068 
47 FRAHubert DupontFRAAg2r La Mondiale03:51:50  +  00:01:15=46,068 
48 FRASylvain CalzatiFRAAgritubel03:51:50  +  00:01:15=46,068 
49 FRAWilliam BonnetFRABbox Bouygues Telecom03:51:50  +  00:01:15=46,068 
50 NZLHayden RoulstonCHECervelo Test Team03:51:50  +  00:01:15=46,068 
51 FRAPierre RollandFRABbox Bouygues Telecom03:52:36  +  00:02:01=45,916 
52 ESPJoan HorrachRUSTeam Katusha03:52:36  +  00:02:01=45,916 
53 ESPLuis RodriguezESPCaisse d´Epargne03:52:36  +  00:02:01=45,916 
54 CANRyder HesjedalUSAGarmin-Slipstream03:52:36  +  00:02:01=45,916 
55 JPNYukiya ArashiroFRABbox Bouygues Telecom03:52:36  +  00:02:01=45,916 
56 FRAMickael DelageBELSilence-Lotto03:52:36  +  00:02:01=45,916 
57 ITAFilippo PozzatoRUSTeam Katusha03:52:36  +  00:02:01=45,916 
58 DENChris Anker SørensenDNKTeam Saxo Bank03:52:36  +  00:02:01=45,916 
59 DENNicki SørensenDNKTeam Saxo Bank03:52:36  +  00:02:01=45,916 
60 NZLJulian DeanUSAGarmin-Slipstream03:52:36  +  00:02:01=45,916 
61 FRAJérémy RoyFRAFrancaise Des Jeux03:52:36  +  00:02:01=45,916 
62 PORSergio PaulinhoKAZAstana Pro Team03:52:36  +  00:02:01=45,916 
63 BLRAliaksandr KuchynskiITALiquigas03:52:36  +  00:02:01=45,916 
64 AUSCadel EvansBELSilence-Lotto03:52:36  +  00:02:01=45,916 
65 AUSMichael RogersUSATeam Columbia-HTC03:52:36  +  00:02:01=45,916 
66 FINCharles WegeliusBELSilence-Lotto03:52:36  +  00:02:01=45,916 
67 SUIDavid LoosliITALampre-N.G.C03:52:36  +  00:02:01=45,916 
68 ITAMatteo TosattoBELQuick Step03:52:36  +  00:02:01=45,916 
69 ESPCarlos SastreCHECervelo Test Team03:52:36  +  00:02:01=45,916 
70 FRAAmaël MoinardFRACofidis Le Credit En Ligne03:52:36  +  00:02:01=45,916 
71 FRASylvain ChavanelBELQuick Step03:52:36  +  00:02:01=45,916 
72 FRARémi PauriolFRACofidis Le Credit En Ligne03:52:36  +  00:02:01=45,916 
73 DENBrian VandborgITALiquigas03:52:36  +  00:02:01=45,916 
74 ESPHaimar ZubeldiaKAZAstana Pro Team03:52:36  +  00:02:01=45,916 
75 UKRVolodymir GustovCHECervelo Test Team03:52:36  +  00:02:01=45,916 
76 GERJohannes FröhlingerDEUTeam Milram03:52:36  +  00:02:01=45,916 
77 RUSYury TrofimovFRABbox Bouygues Telecom03:52:36  +  00:02:01=45,916 
78 FRAPierrick FédrigoFRABbox Bouygues Telecom03:52:36  +  00:02:01=45,916 
79 FRAThomas VoecklerFRABbox Bouygues Telecom03:52:36  +  00:02:01=45,916 
80 FRAArnaud CoyotESPCaisse d´Epargne03:55:19  +  00:04:44=45,386 
81 AUSBrett LancasterCHECervelo Test Team03:55:19  +  00:04:44=45,386 
82 FRADavid MoncoutiéFRACofidis Le Credit En Ligne03:55:19  +  00:04:44=45,386 
83 RUSDenis MenchovNLDRabobank03:55:40  +  00:05:05=45,318 
84 GERSimon GeschkeNLDSkil-Shimano03:55:52  +  00:05:17=45,280 
85 FRABrice FeilluFRAAgritubel03:56:06  +  00:05:31=45,235 
86 NEDSteven de JonghBELQuick Step03:56:06  +  00:05:31=45,235 
87 FRASaid HaddouFRABbox Bouygues Telecom03:56:06  +  00:05:31=45,235 
88 FRANicolas VogondyFRAAgritubel03:57:47  +  00:07:12=44,915 
89 UKRYaroslav PopovychKAZAstana Pro Team04:00:06  +  00:09:31=44,481 
90 ITAFranco PellizottiITALiquigas04:00:06  +  00:09:31=44,481 
91 BELJohan VansummerenBELSilence-Lotto04:00:06  +  00:09:31=44,481 
92 ESPCarlos BarredoBELQuick Step04:00:06  +  00:09:31=44,481 
93 NEDKoen De KortNLDSkil-Shimano04:00:06  +  00:09:31=44,481 
94 FRAThierry HupondNLDSkil-Shimano04:00:06  +  00:09:31=44,481 
95 NEDAlbert TimmerNLDSkil-Shimano04:00:06  +  00:09:31=44,481 
96 BELStijn VandenberghRUSTeam Katusha04:00:06  +  00:09:31=44,481 
97 RUSNikolai TrusovRUSTeam Katusha04:00:06  +  00:09:31=44,481 
98 ESPJuan Manuel GarateNLDRabobank04:00:06  +  00:09:31=44,481 
99 ESPJosé Joaquin RojasESPCaisse d´Epargne04:00:06  +  00:09:31=44,481 
100 FRAAlexandre PichotFRABbox Bouygues Telecom04:00:06  +  00:09:31=44,481 
101 ITAMarzio BruseghinITALampre-N.G.C04:00:06  +  00:09:31=44,481 
102 ITADaniele RighiITALampre-N.G.C04:00:06  +  00:09:31=44,481 
103 FRALloyd MondoryFRAAg2r La Mondiale04:00:06  +  00:09:31=44,481 
104 ESPIñigo CuestaCHECervelo Test Team04:00:25  +  00:09:50=44,423 
105 AUSHeinrich HausslerCHECervelo Test Team04:00:25  +  00:09:50=44,423 
106 AUSMark RenshawUSATeam Columbia-HTC04:05:02  +  00:14:27=43,586 
107 AUSStuart O'GradyDNKTeam Saxo Bank04:05:02  +  00:14:27=43,586 
108 ITAAlessandro VanottiITALiquigas04:05:02  +  00:14:27=43,586 
109 ITAFabio SabatiniITALiquigas04:05:02  +  00:14:27=43,586 
110 ITADaniele BennatiITALiquigas04:05:02  +  00:14:27=43,586 
111 USATyler FarrarUSAGarmin-Slipstream04:05:02  +  00:14:27=43,586 
112 ESPRuben PerezESPEuskaltel - Euskadi04:05:02  +  00:14:27=43,586 
113 ESPJuan José OrozESPEuskaltel - Euskadi04:05:02  +  00:14:27=43,586 
114 AUTBernhard EiselUSATeam Columbia-HTC04:05:02  +  00:14:27=43,586 
115 ESPBingen FernandezFRACofidis Le Credit En Ligne04:05:02  +  00:14:27=43,586 
116 GERBert GrabschUSATeam Columbia-HTC04:05:02  +  00:14:27=43,586 
117 BELStaf ScheirlinckxBELSilence-Lotto04:05:02  +  00:14:27=43,586 
118 FRAStéphane AugeFRACofidis Le Credit En Ligne04:05:02  +  00:14:27=43,586 
119 FRAChristophe RiblonFRAAg2r La Mondiale04:05:02  +  00:14:27=43,586 
120 FRAAnthony GeslinFRAFrancaise Des Jeux04:05:02  +  00:14:27=43,586 
121 USADanny PateUSAGarmin-Slipstream04:05:02  +  00:14:27=43,586 
122 FRAChristophe KernFRACofidis Le Credit En Ligne04:05:02  +  00:14:27=43,586 
123 ITAMarco BandieraITALampre-N.G.C04:09:12  +  00:18:37=42,857 
124 ITAMauro SantambrogioITALampre-N.G.C04:09:12  +  00:18:37=42,857 
125 ESPIgor AntonESPEuskaltel - Euskadi04:09:12  +  00:18:37=42,857 
126 POLMarcin SapaITALampre-N.G.C04:09:12  +  00:18:37=42,857 
127 NEDStef ClementNLDRabobank04:09:12  +  00:18:37=42,857 
128 NEDJoost PosthumaNLDRabobank04:09:12  +  00:18:37=42,857 
129 ESPJosé Ivan GutierrezESPCaisse d´Epargne04:09:12  +  00:18:37=42,857 
130 SUIFabian CancellaraDNKTeam Saxo Bank04:09:12  +  00:18:37=42,857 
131 BELSébastien RosselerBELQuick Step04:09:12  +  00:18:37=42,857 
132 BELStijn DevolderBELQuick Step04:09:12  +  00:18:37=42,857 
133 ARGJuan Antonio FlechaNLDRabobank04:09:12  +  00:18:37=42,857 
134 ESPDavid ArroyoESPCaisse d´Epargne04:09:12  +  00:18:37=42,857 
135 FRAMaxime BouetFRAAgritubel04:09:12  +  00:18:37=42,857 
136 FINJussi VeikkanenFRAFrancaise Des Jeux04:09:12  +  00:18:37=42,857 
137 FRASamuel DumoulinFRACofidis Le Credit En Ligne04:09:12  +  00:18:37=42,857 
138 COLLeonardo DuqueFRACofidis Le Credit En Ligne04:09:12  +  00:18:37=42,857 
139 ESPJose Luis ArrietaFRAAg2r La Mondiale04:09:12  +  00:18:37=42,857 
140 LUXKim KirchenUSATeam Columbia-HTC04:09:12  +  00:18:37=42,857 
141 SLOSimon SpilakITALampre-N.G.C04:09:12  +  00:18:37=42,857 
142 FRACyril LemoineNLDSkil-Shimano04:09:12  +  00:18:37=42,857 
143 BLRYauheni HutarovichFRAFrancaise Des Jeux04:09:12  +  00:18:37=42,857 
144 RUSMikhail IgnatyevRUSTeam Katusha04:09:12  +  00:18:37=42,857 
145 KAZDmitriy MuravyevKAZAstana Pro Team04:09:12  +  00:18:37=42,857 
146 GERGrischa NiermannNLDRabobank04:09:12  +  00:18:37=42,857 
147 SUIGregory RastKAZAstana Pro Team04:09:12  +  00:18:37=42,857 
148 FRAJonathan HivertNLDSkil-Shimano04:09:12  +  00:18:37=42,857 
149 FRABenoit VaugrenardFRAFrancaise Des Jeux04:09:12  +  00:18:37=42,857 
150 NEDLaurens ten DamNLDRabobank04:09:12  +  00:18:37=42,857 
151 GERFabian WegmannDEUTeam Milram04:09:12  +  00:18:37=42,857 
152 GERAndreas KlierCHECervelo Test Team04:09:12  +  00:18:37=42,857 
153 NEDNiki TerpstraDEUTeam Milram04:09:12  +  00:18:37=42,857 
154 GERMarkus FothenDEUTeam Milram04:09:12  +  00:18:37=42,857 
155 USADavid ZabriskieUSAGarmin-Slipstream04:09:12  +  00:18:37=42,857 
156 MLTDavid MillarUSAGarmin-Slipstream04:09:12  +  00:18:37=42,857 


Todays birthdays.

1883  Cyrille Van Hauwaert
1885  Pierino Albini
1889  Joseph Vandaele
1891  Antoine Rière
1892  Charles Arnulf
1895  Giuseppe Ruffoni
1905  Edmond Berenger
1905  Leon Chene
1905  Paul Le Drogo
1923  Georges Gilles
1935  Jean Anastasi
1938  Tommaso De Pra
1944  Bernard Vifian
1949  Paul Aerts
1950  Roy Schuiten
1962  Antonio Castro
1962  Charly Mottet
1964  Roberto Conti
1964  Denis Leproux
1970  Jo Planckaert